Regional Weather Roundup
Issued by NWS

Home | Current Version | Previous Version | Text Only | Print | Product List | Glossary On
Versions: 1 2 3 4 5 6 7 8 9 10 11 12 13 14 15 16 17 18 19 20 21 22 23 24 25 26 27 28 29 30 31 32 33 34 35 36 37 38 39 40 41 42 43 44 45 46 47 48 49 50
000
ASMX46 KSGX 250910
RWRMX

MEXICAN WEATHER ROUNDUP
NATIONAL WEATHER SERVICE SAN DIEGO CA
200 AM PDT FRI JUL 25 2014

BAJA CALIFORNIA

CITY           SKY/WX    TMP DP  RH WIND       PRES   REMARKS
ENSENADA NW      N/A     66  32  28 NW3       29.86F
MEXICALI       MOCLDY    90  70  51 E8        29.71  HX  95
TIJUANA        CLEAR     68  63  83 S3        29.91F

NORTHWESTERN MEXICO

CITY           SKY/WX    TMP DP  RH WIND       PRES   REMARKS

NORTHEASTERN MEXICO

CITY           SKY/WX    TMP DP  RH WIND       PRES   REMARKS
MONTERREY      CLEAR     77  70  78 CALM      29.98F
REYNOSA        CLEAR     79  72  78 SE5       29.97
VICTORIA       CLEAR     79  68  69 S14       30.00

WESTERN MEXICO

CITY           SKY/WX    TMP DP  RH WIND       PRES   REMARKS
GUADALAJARA    MOCLDY    59  55  88 S3        30.22
MAZATLAN       MOCLDY    73  68  83 NE7       29.89S
PTO. VALLARTA  MOCLDY    75  70  83 CALM      29.91F
ZACATECAS      PTCLDY    54  43  66 CALM      30.33F

CENTRAL MEXICO

CITY           SKY/WX    TMP DP  RH WIND       PRES   REMARKS
LEON           MOCLDY    59  57  94 SE3       30.33S
MEXICO CITY    MOCLDY    55  54  94 NE5       30.38F
MORELIA        CLEAR     54  54 100 CALM      30.28
QUERETARO      MOCLDY    57  54  88 CALM      30.38S
S. LUIS POTOSI PTCLDY    57  54  88 CALM      30.30
TOLUCA         MOCLDY    50  45  81 E5        30.44S FOG

SOUTHERN MEXICO

CITY           SKY/WX    TMP DP  RH WIND       PRES   REMARKS
ACAPULCO       CLOUDY    79  73  83 CALM      29.85F
TAPACHULA      MOCLDY    79  77  94 CALM      29.87F
VILLAHERMOSA   CLEAR     77  72  83 E6        29.95

YUCATAN PENINSULA

CITY           SKY/WX    TMP DP  RH WIND       PRES   REMARKS
CANCUN         PTCLDY    75  73  94 CALM      30.01F
COZUMEL        MOCLDY    72  72 100 CALM      30.01F
MERIDA         PTCLDY    77  72  83 CALM      30.00S

$$




USA.gov is the U.S. government's official web portal to all federal, state and local government web resources and services.